Location: Ashtead
(51.3000°N, 0.3000°W)
Time: 19:37:00
(UTC+00:00)

H-2A R/B - Pass Details

Date: 26 September 2023
Orbit: 462 x 467 km, 97.4° (Epoch: 20 October)

Event Time Altitude Azimuth Distance (km) Brightness Sun altitude
Rises 05:21:41 0° 6° (N) 2,528 6.4 -5.7°
Reaches altitude 10° 05:23:50 10° 358° (N) 1,646 5.3 -5.4°
Maximum altitude 05:27:06 36° 291° (WNW) 762 3.1 -4.9°
Drops below altitude 10° 05:30:21 10° 223° (SW) 1,632 4.8 -4.4°
Sets 05:32:28 0° 215° (SW) 2,504 5.8 -4.1°
